Weather History for LHBP - September, 2012

Change the Weather History Date:

Wednesday, September 5, 2012

  Actual Average Record
Temperature  
Mean Temperature 73 °F -  
Max Temperature 87 °F 66 °F 87 °F (2011)
Min Temperature 59 °F 48 °F 46 °F (2013)
Cooling Degree Days 8    
Growing Degree Days 23 (Base 50)    
Moisture  
Dew Point 57 °F    
Average Humidity 60    
Maximum Humidity 88    
Minimum Humidity 31    
Precipitation  
Precipitation 0.00 in - - ()
Sea Level Pressure  
Sea Level Pressure 29.99 in    
Wind  
Wind Speed 4 mph ()    
Max Wind Speed 13 mph    
Max Gust Speed -    
Visibility 5.6 miles    
Events      
Averages and records for this station are not official NWS values.
T = Trace of Precipitation, MM = Missing Value Source: Averaged Metar Reports

Daily Weather History Graph

Daily Weather History Graph

Search for Another Location

Airport or City:

Trip Planner

Search our weather history database for the weather conditions in past years. The results will help you decide how hot, cold, wet, or windy it might be!

Date:

Astronomy

Sep. 05, 2012 Rise Set
Actual Time 6:07 AM CEST 7:14 PM CEST
Civil Twilight 5:35 AM CEST 7:46 PM CEST
Nautical Twilight 4:57 AM CEST 8:23 PM CEST
Astronomical Twilight 4:17 AM CEST 9:04 PM CEST
Moon 9:07 PM CEST (9/5) 11:19 AM CEST (9/5)
Length of Visible Light 14h 10m
Length of Day
13h 07m
Waning Gibbous, 78% of the Moon is Illuminated
Sep 5
Waning Gibbous
Sep 8
Last Quarter
Sep 16
New
Sep 22
First Quarter
Sep 30
Full

Hourly Weather History & Observations

Time (CEST) Temp. Heat Index Dew Point Humidity Pressure Visibility Wind Dir Wind Speed Gust Speed Precip Events Conditions
12:00 AM 68.0 °F - 55.4 °F 64% 30.04 in - East 4.6 mph - N/A   Clear
12:30 AM 64.4 °F - 57.2 °F 77% 30.04 in - East 5.8 mph - N/A   Clear
1:00 AM 68.0 °F - 57.2 °F 68% 30.04 in - Variable 2.3 mph - N/A   Clear
1:30 AM 66.2 °F - 57.2 °F 73% 30.04 in - Calm Calm - N/A   Clear
2:00 AM 64.4 °F - 57.2 °F 77% 30.04 in - Variable 3.5 mph - N/A   Clear
2:30 AM 64.4 °F - 57.2 °F 77% 30.04 in - Variable 2.3 mph - N/A   Clear
3:00 AM 62.6 °F - 55.4 °F 77% 30.04 in - Variable 2.3 mph - N/A   Clear
3:30 AM 60.8 °F - 57.2 °F 88% 30.04 in - Variable 3.5 mph - N/A   Clear
4:00 AM 62.6 °F - 57.2 °F 82% 30.01 in - Variable 2.3 mph - N/A   Clear
4:30 AM 62.6 °F - 57.2 °F 82% 30.01 in - Variable 1.2 mph - N/A   Clear
5:00 AM 59.0 °F - 55.4 °F 88% 30.01 in - Variable 3.5 mph - N/A   Clear
5:30 AM 60.8 °F - 55.4 °F 82% 30.01 in - Variable 1.2 mph - N/A   Clear
6:00 AM 59.0 °F - 55.4 °F 88% 30.01 in 4.3 mi Variable 1.2 mph - N/A   Unknown
6:30 AM 59.0 °F - 55.4 °F 88% 30.01 in 5.0 mi Variable 3.5 mph - N/A   Unknown
7:00 AM 62.6 °F - 57.2 °F 82% 30.01 in 4.3 mi Variable 3.5 mph - N/A   Unknown
7:30 AM 64.4 °F - 59.0 °F 83% 30.01 in 4.3 mi Variable 3.5 mph - N/A   Unknown
8:00 AM 68.0 °F - 59.0 °F 73% 30.01 in 5.0 mi Variable 2.3 mph - N/A   Unknown
8:30 AM 68.0 °F - 60.8 °F 78% 30.01 in - NNW 4.6 mph - N/A   Clear
9:00 AM 71.6 °F - 60.8 °F 69% 30.01 in - NNW 5.8 mph - N/A   Clear
9:30 AM 73.4 °F - 60.8 °F 65% 30.01 in - NNW 4.6 mph - N/A   Clear
10:00 AM 77.0 °F - 59.0 °F 54% 30.01 in - Variable 3.5 mph - N/A   Clear
10:30 AM 78.8 °F - 59.0 °F 51% 30.01 in - Variable 3.5 mph - N/A   Clear
11:00 AM 78.8 °F - 59.0 °F 51% 30.01 in - ENE 4.6 mph - N/A   Clear
11:30 AM 80.6 °F 81.1 °F 59.0 °F 48% 30.01 in - East 4.6 mph - N/A   Clear
12:00 PM 82.4 °F 82.5 °F 59.0 °F 45% 30.01 in - ENE 4.6 mph - N/A   Clear
12:30 PM 82.4 °F 82.0 °F 57.2 °F 42% 30.01 in - NW 5.8 mph - N/A   Clear
1:00 PM 84.2 °F 83.8 °F 59.0 °F 42% 29.98 in - Variable 3.5 mph - N/A   Clear
1:30 PM 84.2 °F 83.5 °F 57.2 °F 40% 29.98 in - WNW 5.8 mph - N/A   Clear
2:00 PM 84.2 °F 83.5 °F 57.2 °F 40% 29.98 in - NNE 6.9 mph - N/A   Clear
2:30 PM 86.0 °F 84.9 °F 57.2 °F 37% 29.95 in 6.2 mi Variable 3.5 mph - N/A   Partly Cloudy
3:00 PM 86.0 °F 84.5 °F 55.4 °F 35% 29.95 in 6.2 mi Variable 3.5 mph - N/A   Partly Cloudy
3:30 PM 86.0 °F - 51.8 °F 31% 29.95 in 6.2 mi Variable 3.5 mph - N/A   Scattered Clouds
4:00 PM 87.8 °F 85.7 °F 53.6 °F 31% 29.95 in 6.2 mi NNW 5.8 mph - N/A   Scattered Clouds
4:30 PM 84.2 °F 83.8 °F 59.0 °F 42% 29.95 in 6.2 mi NNW 12.7 mph - N/A   Scattered Clouds
5:00 PM 82.4 °F 82.5 °F 59.0 °F 45% 29.95 in 6.2 mi NNW 11.5 mph - N/A   Scattered Clouds
5:30 PM 82.4 °F 82.0 °F 57.2 °F 42% 29.95 in 6.2 mi NNW 8.1 mph - N/A   Scattered Clouds
6:00 PM 80.6 °F 80.5 °F 55.4 °F 42% 29.92 in 6.2 mi NW 5.8 mph - N/A   Scattered Clouds
6:30 PM 78.8 °F - 55.4 °F 44% 29.92 in - NNW 5.8 mph - N/A   Clear
7:00 PM 75.2 °F - 55.4 °F 50% 29.92 in - WNW 6.9 mph - N/A   Clear
7:30 PM 75.2 °F - 57.2 °F 53% 29.95 in - Variable 3.5 mph - N/A   Clear
8:00 PM 75.2 °F - 57.2 °F 53% 29.95 in - NW 8.1 mph - N/A   Clear
8:30 PM 73.4 °F - 59.0 °F 61% 29.95 in - NNW 6.9 mph - N/A   Clear
9:00 PM 73.4 °F - 57.2 °F 57% 29.95 in - NNW 5.8 mph - N/A   Clear
9:30 PM 73.4 °F - 55.4 °F 53% 29.95 in - West 6.9 mph - N/A   Clear
10:00 PM 71.6 °F - 55.4 °F 57% 29.95 in - WNW 4.6 mph - N/A   Clear
10:30 PM 71.6 °F - 55.4 °F 57% 29.95 in - Variable 1.2 mph - N/A   Clear
11:00 PM 73.4 °F - 55.4 °F 53% 29.95 in - Variable 3.5 mph - N/A   Clear
11:30 PM 71.6 °F - 55.4 °F 57% 29.95 in - Variable 3.5 mph - N/A   Clear